Location: Quedlinburg
(51.7921°N, 11.1414°E)
Time: 07:25:36
(UTC+02:00)

RS-44 - Pass Details

Date: 21 March 2026
Orbit: 1175 x 1510 km, 82.5° (Epoch: 13 April)

Event Time Altitude Azimuth Distance (km) Brightness Sun altitude
Rises 02:43:51 0° 347° (NNW) 4,438 ? -30.2°
Reaches altitude 10° 02:46:38 10° 344° (NNW) 3,502 ? -29.9°
Maximum altitude 02:54:53 60° 268° (W) 1,648 ? -29.0°
Enters shadow 02:55:57 57° 240° (WSW) 1,703 ? -28.9°
